TimeMDT,TemperatureF,Dew PointF,Humidity,Sea Level PressureIn,VisibilityMPH,Wind Direction,Wind SpeedMPH,Gust SpeedMPH,PrecipitationIn,Events,Conditions,WindDirDegrees,DateUTC
12:15 AM,34.7,17.6,50,30.15,10.0,Calm,Calm,-,N/A,,Clear,0,2013-03-28 06:15:00
12:35 AM,34.2,12.0,40,30.16,10.0,Calm,Calm,-,N/A,,Clear,0,2013-03-28 06:35:00
12:55 AM,34.2,12.0,40,30.16,10.0,Calm,Calm,-,N/A,,Clear,0,2013-03-28 06:55:00
1:15 AM,32.9,17.1,52,30.16,10.0,Calm,Calm,-,N/A,,Clear,0,2013-03-28 07:15:00
1:35 AM,32.0,18.0,56,30.16,10.0,Calm,Calm,-,N/A,,Clear,0,2013-03-28 07:35:00
1:55 AM,33.6,15.8,48,30.17,10.0,Calm,Calm,-,N/A,,Clear,0,2013-03-28 07:55:00
2:15 AM,32.0,19.8,61,30.17,10.0,Calm,Calm,-,N/A,,Clear,0,2013-03-28 08:15:00
2:35 AM,30.9,18.3,60,30.17,10.0,Calm,Calm,-,N/A,,Clear,0,2013-03-28 08:35:00
2:55 AM,31.3,16.0,53,30.17,10.0,Calm,Calm,-,N/A,,Clear,0,2013-03-28 08:55:00
3:15 AM,31.1,14.4,50,30.16,10.0,Calm,Calm,-,N/A,,Clear,0,2013-03-28 09:15:00
3:35 AM,29.8,14.2,52,30.17,10.0,Calm,Calm,-,N/A,,Clear,0,2013-03-28 09:35:00
3:55 AM,29.3,16.0,58,30.17,10.0,Calm,Calm,-,N/A,,Scattered Clouds,0,2013-03-28 09:55:00
4:15 AM,29.3,14.9,55,30.16,10.0,Calm,Calm,-,N/A,,Clear,0,2013-03-28 10:15:00
4:35 AM,30.0,15.3,54,30.16,10.0,Calm,Calm,-,N/A,,Clear,0,2013-03-28 10:35:00
4:55 AM,29.3,16.2,58,30.16,10.0,Calm,Calm,-,N/A,,Clear,0,2013-03-28 10:55:00
5:15 AM,28.6,16.7,61,30.16,10.0,Calm,Calm,-,N/A,,Clear,0,2013-03-28 11:15:00
5:35 AM,29.5,13.1,51,30.17,10.0,Calm,Calm,-,N/A,,Clear,0,2013-03-28 11:35:00
5:55 AM,28.6,15.4,58,30.17,10.0,Calm,Calm,-,N/A,,Clear,0,2013-03-28 11:55:00
6:15 AM,28.4,16.9,62,30.17,10.0,Calm,Calm,-,N/A,,Clear,0,2013-03-28 12:15:00
6:35 AM,28.4,16.7,62,30.17,10.0,Calm,Calm,-,N/A,,Clear,0,2013-03-28 12:35:00
6:55 AM,28.4,16.0,60,30.18,10.0,Calm,Calm,-,N/A,,Clear,0,2013-03-28 12:55:00
7:15 AM,29.1,16.3,59,30.19,10.0,Calm,Calm,-,N/A,,Clear,0,2013-03-28 13:15:00
7:35 AM,28.0,17.6,65,30.19,10.0,Calm,Calm,-,N/A,,Clear,0,2013-03-28 13:35:00
7:55 AM,31.1,19.2,61,30.20,10.0,Calm,Calm,-,N/A,,Clear,0,2013-03-28 13:55:00
8:15 AM,34.7,18.5,52,30.19,10.0,NE,3.5,-,N/A,,Clear,40,2013-03-28 14:15:00
8:35 AM,37.8,16.5,42,30.20,10.0,Calm,Calm,-,N/A,,Clear,0,2013-03-28 14:35:00
8:55 AM,39.2,14.9,37,30.20,10.0,Calm,Calm,-,N/A,,Clear,0,2013-03-28 14:55:00
9:15 AM,40.5,18.1,41,30.21,10.0,Calm,Calm,-,N/A,,Clear,0,2013-03-28 15:15:00
9:35 AM,43.0,16.3,34,30.21,10.0,Calm,Calm,-,N/A,,Clear,0,2013-03-28 15:35:00
9:55 AM,45.5,14.9,29,30.21,10.0,SW,4.6,-,N/A,,Clear,220,2013-03-28 15:55:00
10:15 AM,47.1,13.1,25,30.21,10.0,Calm,Calm,-,N/A,,Clear,0,2013-03-28 16:15:00
10:35 AM,48.6,12.6,24,30.22,10.0,SW,3.5,-,N/A,,Clear,220,2013-03-28 16:35:00
10:55 AM,49.6,12.9,23,30.22,10.0,Calm,Calm,-,N/A,,Clear,0,2013-03-28 16:55:00
11:15 AM,50.9,13.6,23,30.22,10.0,ESE,3.5,-,N/A,,Clear,120,2013-03-28 17:15:00
11:35 AM,52.2,13.1,21,30.22,10.0,South,4.6,-,N/A,,Clear,190,2013-03-28 17:35:00
11:55 AM,52.3,10.6,19,30.21,10.0,Calm,Calm,-,N/A,,Clear,0,2013-03-28 17:55:00
12:15 PM,53.4,8.6,17,30.20,10.0,Calm,Calm,-,N/A,,Clear,0,2013-03-28 18:15:00
12:35 PM,54.1,10.0,17,30.20,10.0,South,9.2,17.3,N/A,,Clear,190,2013-03-28 18:35:00
12:55 PM,53.8,9.3,17,30.19,10.0,Calm,Calm,-,N/A,,Clear,0,2013-03-28 18:55:00
1:15 PM,55.2,9.3,16,30.19,10.0,SSE,4.6,-,N/A,,Clear,160,2013-03-28 19:15:00
1:35 PM,55.8,9.1,16,30.19,10.0,SW,8.1,-,N/A,,Clear,220,2013-03-28 19:35:00
1:55 PM,55.4,9.5,16,30.18,10.0,WSW,9.2,-,N/A,,Clear,250,2013-03-28 19:55:00
2:15 PM,57.2,3.4,11,30.17,10.0,South,6.9,-,N/A,Thunderstorm,Thunderstorm,180,2013-03-28 20:15:00
2:35 PM,57.0,7.3,14,30.17,10.0,SW,9.2,18.4,N/A,,Clear,230,2013-03-28 20:35:00
2:55 PM,57.4,9.0,15,30.16,10.0,WSW,6.9,17.3,N/A,,Clear,240,2013-03-28 20:55:00
3:15 PM,57.6,3.7,12,30.16,10.0,SSW,4.6,-,N/A,,Clear,210,2013-03-28 21:15:00
3:35 PM,57.9,6.1,13,30.15,10.0,SSW,18.4,-,N/A,Thunderstorm,Thunderstorm,200,2013-03-28 21:35:00
3:55 PM,58.6,7.7,13,30.15,10.0,SW,12.7,18.4,N/A,,Clear,230,2013-03-28 21:55:00
4:15 PM,58.5,6.8,13,30.14,10.0,WSW,8.1,18.4,N/A,,Clear,240,2013-03-28 22:15:00
4:35 PM,58.8,7.5,13,30.14,10.0,SW,12.7,21.9,N/A,,Clear,220,2013-03-28 22:35:00
4:55 PM,58.8,7.7,13,30.14,10.0,WSW,11.5,18.4,N/A,,Clear,250,2013-03-28 22:55:00
5:15 PM,58.1,5.9,12,30.14,10.0,SSW,8.1,18.4,N/A,,Clear,200,2013-03-28 23:15:00
5:35 PM,57.9,7.2,13,30.14,10.0,SSW,12.7,21.9,N/A,,Clear,210,2013-03-28 23:35:00
5:55 PM,57.4,8.8,14,30.15,10.0,SW,10.4,18.4,N/A,,Clear,230,2013-03-28 23:55:00
6:15 PM,57.2,8.8,15,30.15,10.0,SW,10.4,17.3,N/A,,Clear,220,2013-03-29 00:15:00
6:35 PM,56.3,9.0,15,30.15,10.0,SW,9.2,-,N/A,,Clear,230,2013-03-29 00:35:00
6:55 PM,55.8,10.4,16,30.16,10.0,SSW,10.4,-,N/A,,Clear,210,2013-03-29 00:55:00
7:15 PM,54.1,13.8,20,30.17,10.0,SSW,9.2,-,N/A,,Clear,200,2013-03-29 01:15:00
7:35 PM,52.3,14.9,23,30.17,10.0,SSW,5.8,-,N/A,,Clear,200,2013-03-29 01:35:00
7:55 PM,50.4,17.2,27,30.18,10.0,Calm,Calm,-,N/A,,Clear,0,2013-03-29 01:55:00
8:15 PM,42.8,24.1,48,30.19,10.0,Calm,Calm,-,N/A,,Clear,0,2013-03-29 02:15:00
8:35 PM,41.5,24.3,50,30.19,10.0,Calm,Calm,-,N/A,,Clear,0,2013-03-29 02:35:00
8:55 PM,42.4,17.1,36,30.20,10.0,NE,5.8,-,N/A,,Clear,40,2013-03-29 02:55:00
9:15 PM,43.5,15.6,33,30.20,10.0,Calm,Calm,-,N/A,,Clear,0,2013-03-29 03:15:00
9:35 PM,42.3,16.9,36,30.20,10.0,NNE,4.6,-,N/A,,Clear,30,2013-03-29 03:35:00
9:55 PM,42.1,16.0,35,30.21,10.0,NNE,5.8,-,N/A,,Clear,30,2013-03-29 03:55:00
10:15 PM,41.4,17.8,39,30.21,10.0,Calm,Calm,-,N/A,,Clear,0,2013-03-29 04:15:00
10:35 PM,41.5,16.2,36,30.22,10.0,NNE,5.8,-,N/A,,Clear,30,2013-03-29 04:35:00
10:55 PM,40.8,15.4,36,30.22,10.0,NE,3.5,-,N/A,,Clear,50,2013-03-29 04:55:00
11:15 PM,39.0,18.1,43,30.22,10.0,NE,3.5,-,N/A,,Clear,40,2013-03-29 05:15:00
11:35 PM,39.2,17.4,41,30.22,10.0,NE,3.5,-,N/A,,Clear,50,2013-03-29 05:35:00
11:55 PM,36.9,19.9,50,30.23,10.0,Calm,Calm,-,N/A,,Scattered Clouds,0,2013-03-29 05:55:00